| time (UTC) | temp F | wind direction | speed knots | gust knots | rain 1hr in | rain 24hr in | rain mn in | humidity % | barometer mb |
| 20260906230046 | 66 | 344 | 2.6 | 7.0 | 0.00 | 0.00 | 0.00 | 71 | 1011.0 |
| 20260906224550 | 66 | 342 | 4.3 | 9.6 | 0.00 | 0.00 | 0.00 | 70 | 1011.0 |
| 20260906223046 | 67 | 304 | 3.5 | 7.8 | 0.00 | 0.00 | 0.00 | 70 | 1011.1 |
| 20260906221554 | 67 | 342 | 4.3 | 8.7 | 0.00 | 0.00 | 0.00 | 70 | 1011.0 |
| 20260906220044 | 66 | 348 | 1.7 | 8.7 | 0.00 | 0.00 | 0.00 | 71 | 1011.0 |
| 20260906214544 | 66 | 305 | 5.2 | 9.6 | 0.00 | 0.00 | 0.00 | 71 | 1011.0 |
| 20260906213049 | 66 | 346 | 5.2 | 8.7 | 0.00 | 0.00 | 0.00 | 71 | 1011.1 |
| 20260906211543 | 66 | 319 | 2.6 | 8.7 | 0.00 | 0.00 | 0.00 | 71 | 1011.0 |
| 20260906210041 | 66 | 355 | 2.6 | 5.2 | 0.00 | 0.00 | 0.00 | 70 | 1011.3 |
| 20260906204557 | 66 | 5 | 1.7 | 7.0 | 0.00 | 0.00 | 0.00 | 70 | 1011.4 |
| 20260906203039 | 66 | 339 | 0.9 | 9.6 | 0.00 | 0.00 | 0.00 | 71 | 1011.4 |
| 20260906201548 | 66 | 60 | 2.6 | 7.0 | 0.00 | 0.00 | 0.00 | 71 | 1011.4 |
| 20260906200037 | 65 | 52 | 3.5 | 7.8 | 0.00 | 0.00 | 0.00 | 71 | 1011.4 |
| 20260906194534 | 65 | 65 | 4.3 | 9.6 | 0.00 | 0.00 | 0.00 | 72 | 1011.3 |
| 20260906193033 | 64 | 39 | 5.2 | 12.2 | 0.00 | 0.00 | 0.00 | 72 | 1011.3 |
| 20260906191530 | 63 | 61 | 7.0 | 12.2 | 0.00 | 0.00 | 0.00 | 72 | 1011.6 |
| 20260906190027 | 62 | 61 | 8.7 | 16.5 | 0.00 | 0.00 | 0.00 | 72 | 1011.8 |
| 20260906184522 | 61 | 334 | 8.7 | 17.4 | 0.00 | 0.00 | 0.00 | 72 | 1012.2 |
| 20260906183019 | 60 | 347 | 7.8 | 14.8 | 0.00 | 0.00 | 0.00 | 74 | 1012.8 |
| 20260906181518 | 59 | 23 | 7.8 | 16.5 | 0.00 | 0.00 | 0.00 | 74 | 1013.0 |
| 20260906180022 | 59 | 355 | 7.0 | 19.1 | 0.00 | 0.00 | 0.00 | 75 | 1013.2 |
| 20260906174518 | 58 | 325 | 9.6 | 16.5 | 0.00 | 0.00 | 0.00 | 75 | 1013.5 |
| 20260906173014 | 58 | 17 | 8.7 | 15.6 | 0.00 | 0.00 | 0.00 | 73 | 1013.7 |
| 20260906171514 | 58 | 330 | 7.8 | 14.8 | 0.00 | 0.00 | 0.00 | 71 | 1013.5 |
| 20260906170014 | 58 | 12 | 7.8 | 13.0 | 0.00 | 0.00 | 0.00 | 72 | 1013.7 |
| 20260906164512 | 59 | 325 | 7.0 | 11.3 | 0.00 | 0.00 | 0.00 | 73 | 1013.7 |
| 20260906163010 | 60 | 5 | 4.3 | 7.8 | 0.00 | 0.00 | 0.00 | 72 | 1013.9 |
| 20260906161515 | 60 | 68 | 3.5 | 7.0 | 0.00 | 0.00 | 0.00 | 71 | 1013.9 |
| 20260906160008 | 60 | 23 | 2.6 | 7.0 | 0.00 | 0.00 | 0.00 | 71 | 1014.0 |
| 20260906154507 | 60 | 54 | 2.6 | 7.0 | 0.00 | 0.00 | 0.00 | 71 | 1014.0 |
| 20260906153007 | 60 | 77 | 3.5 | 9.6 | 0.00 | 0.00 | 0.00 | 72 | 1013.9 |
| 20260906151506 | 60 | 52 | 3.5 | 9.6 | 0.00 | 0.00 | 0.00 | 72 | 1014.2 |
| 20260906150011 | 60 | 78 | 5.2 | 10.4 | 0.00 | 0.00 | 0.00 | 72 | 1014.0 |
| 20260906144507 | 59 | 63 | 2.6 | 9.6 | 0.00 | 0.00 | 0.00 | 71 | 1013.9 |
| 20260906143113 | 59 | 43 | 2.6 | 6.1 | 0.00 | 0.00 | 0.00 | 71 | 1014.3 |
| 20260906141601 | 59 | 45 | 3.5 | 6.1 | 0.00 | 0.00 | 0.00 | 71 | 1014.5 |
| 20260906140059 | 59 | 360 | 1.7 | 5.2 | 0.00 | 0.00 | 0.00 | 70 | 1014.5 |
| 20260906134559 | 59 | 9 | 2.6 | 5.2 | 0.00 | 0.00 | 0.00 | 71 | 1014.6 |
| 20260906133059 | 59 | 10 | 3.5 | 7.0 | 0.00 | 0.00 | 0.00 | 71 | 1014.3 |
| 20260906131557 | 59 | 29 | 2.6 | 6.1 | 0.00 | 0.00 | 0.00 | 69 | 1014.6 |
| 20260906130055 | 58 | 323 | 3.5 | 8.7 | 0.00 | 0.00 | 0.00 | 67 | 1014.6 |
| 20260906124552 | 58 | 11 | 3.5 | 8.7 | 0.00 | 0.00 | 0.00 | 66 | 1014.3 |
| 20260906123052 | 57 | 348 | 4.3 | 7.0 | 0.00 | 0.00 | 0.00 | 63 | 1014.5 |
| 20260906121556 | 57 | 334 | 3.5 | 7.0 | 0.00 | 0.00 | 0.00 | 63 | 1014.4 |
| 20260906120109 | 57 | 12 | 5.2 | 8.7 | 0.00 | 0.00 | 0.00 | 62 | 1014.1 |
| 20260906114548 | 56 | 5 | 3.5 | 9.6 | 0.00 | 0.00 | 0.00 | 61 | 1014.4 |
| 20260906113052 | 56 | 336 | 4.3 | 10.4 | 0.00 | 0.00 | 0.00 | 61 | 1014.5 |
| 20260906111604 | 56 | 324 | 5.2 | 10.4 | 0.00 | 0.00 | 0.00 | 61 | 1014.4 |
| 20260906110045 | 56 | 325 | 4.3 | 10.4 | 0.00 | 0.00 | 0.00 | 61 | 1014.4 |
| 20260906104544 | 56 | 320 | 7.8 | 13.0 | 0.00 | 0.00 | 0.00 | 61 | 1014.6 |
| 20260906103044 | 56 | 341 | 6.1 | 10.4 | 0.00 | 0.00 | 0.00 | 61 | 1014.8 |
| 20260906101542 | 56 | 325 | 7.0 | 13.9 | 0.00 | 0.00 | 0.00 | 60 | 1014.7 |
| 20260906100041 | 56 | 360 | 7.8 | 15.6 | 0.00 | 0.00 | 0.00 | 60 | 1014.8 |
| 20260906094542 | 55 | 342 | 6.1 | 14.8 | 0.00 | 0.00 | 0.00 | 60 | 1014.9 |
| 20260906093041 | 55 | 333 | 7.8 | 16.5 | 0.00 | 0.00 | 0.00 | 60 | 1014.9 |
| 20260906091536 | 55 | 355 | 7.0 | 12.2 | 0.00 | 0.00 | 0.00 | 60 | 1014.9 |
| 20260906090034 | 55 | 342 | 7.0 | 14.8 | 0.00 | 0.00 | 0.00 | 62 | 1015.0 |
| 20260906084543 | 55 | 310 | 5.2 | 12.2 | 0.00 | 0.00 | 0.00 | 65 | 1015.1 |
| 20260906083035 | 55 | 350 | 7.0 | 12.2 | 0.00 | 0.00 | 0.00 | 67 | 1015.0 |
| 20260906081525 | 56 | 347 | 6.1 | 11.3 | 0.00 | 0.00 | 0.00 | 68 | 1015.1 |
| 20260906080029 | 56 | 334 | 6.1 | 11.3 | 0.00 | 0.00 | 0.00 | 71 | 1015.2 |
| 20260906074519 | 56 | 319 | 7.0 | 12.2 | 0.00 | 0.00 | 0.00 | 72 | 1015.4 |
| 20260906073016 | 57 | 13 | 6.1 | 13.9 | 0.00 | 0.00 | 0.00 | 73 | 1015.7 |
| 20260906071513 | 57 | 360 | 7.8 | 12.2 | 0.00 | 0.00 | 0.00 | 73 | 1016.0 |
| 20260906070011 | 57 | 355 | 7.0 | 10.4 | 0.00 | 0.00 | 0.00 | 73 | 1016.1 |
| 20260906064514 | 58 | 19 | 6.1 | 10.4 | 0.00 | 0.00 | 0.00 | 73 | 1016.2 |
| 20260906063007 | 57 | 9 | 6.1 | 10.4 | 0.00 | 0.00 | 0.00 | 73 | 1016.3 |
| 20260906061506 | 57 | 17 | 5.2 | 11.3 | 0.00 | 0.00 | 0.00 | 72 | 1016.3 |
| 20260906060004 | 57 | 5 | 6.1 | 9.6 | 0.00 | 0.00 | 0.00 | 73 | 1016.4 |
| 20260906054502 | 57 | 315 | 5.2 | 12.2 | 0.00 | 0.00 | 0.00 | 74 | 1016.5 |
| 20260906053002 | 58 | 346 | 5.2 | 10.4 | 0.00 | 0.00 | 0.00 | 74 | 1016.4 |
| 20260906051501 | 58 | 17 | 5.2 | 10.4 | 0.00 | 0.00 | 0.00 | 74 | 1016.5 |
| 20260906050100 | 58 | 331 | 6.1 | 12.2 | 0.00 | 0.00 | 0.00 | 74 | 1016.3 |
| 20260906044557 | 59 | 327 | 7.0 | 14.8 | 0.00 | 0.00 | 0.00 | 73 | 1015.7 |
| 20260906043059 | 59 | 11 | 11.3 | 16.5 | 0.00 | 0.00 | 0.00 | 73 | 1015.7 |
| 20260906041602 | 59 | 360 | 8.7 | 14.8 | 0.00 | 0.00 | 0.00 | 73 | 1015.7 |
| 20260906040056 | 59 | 320 | 8.7 | 14.8 | 0.00 | 0.00 | 0.00 | 72 | 1015.7 |
| 20260906034557 | 60 | 5 | 6.1 | 11.3 | 0.00 | 0.00 | 0.00 | 72 | 1015.7 |
| 20260906033055 | 60 | 346 | 7.8 | 13.0 | 0.00 | 0.00 | 0.00 | 71 | 1015.3 |
| 20260906031554 | 60 | 341 | 9.6 | 14.8 | 0.00 | 0.00 | 0.00 | 70 | 1015.0 |
| 20260906030054 | 60 | 355 | 8.7 | 13.9 | 0.00 | 0.00 | 0.00 | 70 | 1014.5 |
| 20260906024608 | 61 | 347 | 7.8 | 13.9 | 0.00 | 0.00 | 0.00 | 69 | 1014.4 |
| 20260906023054 | 61 | 360 | 7.0 | 13.9 | 0.00 | 0.00 | 0.00 | 68 | 1014.4 |
| 20260906021553 | 62 | 5 | 7.0 | 15.6 | 0.00 | 0.00 | 0.00 | 67 | 1014.2 |
| 20260906020052 | 62 | 338 | 7.8 | 13.9 | 0.00 | 0.00 | 0.00 | 65 | 1014.2 |
| 20260906014602 | 63 | 355 | 7.0 | 14.8 | 0.00 | 0.00 | 0.00 | 64 | 1014.3 |
| 20260906013052 | 64 | 343 | 7.8 | 14.8 | 0.00 | 0.00 | 0.00 | 62 | 1014.2 |
| 20260906011551 | 65 | 16 | 9.6 | 15.6 | 0.00 | 0.00 | 0.00 | 60 | 1014.2 |
| 20260906010051 | 66 | 355 | 8.7 | 17.4 | 0.00 | 0.00 | 0.00 | 58 | 1014.0 |
| 20260906004550 | 68 | 315 | 8.7 | 16.5 | 0.00 | 0.00 | 0.00 | 54 | 1014.1 |
| 20260906003108 | 70 | 346 | 9.6 | 18.2 | 0.00 | 0.00 | 0.00 | 49 | 1013.9 |
| 20260906001550 | 73 | 327 | 6.1 | 12.2 | 0.00 | 0.00 | 0.00 | 40 | 1014.0 |
| 20260906000053 | 73 | 360 | 7.8 | 13.9 | 0.00 | 0.00 | 0.00 | 38 | 1014.1 |
| 20260905234548 | 74 | 360 | 5.2 | 12.2 | 0.00 | 0.00 | 0.00 | 39 | 1014.1 |
| 20260905233048 | 74 | 25 | 5.2 | 11.3 | 0.00 | 0.00 | 0.00 | 38 | 1014.1 |
| 20260905231547 | 74 | 26 | 5.2 | 10.4 | 0.00 | 0.00 | 0.00 | 37 | 1013.9 |